[[{"header":{"parameterUnit":"m.s-1","parameterCategory":1,"la1":30.2991,"la2":30.254,"lo1":-89.0895,"lo2":-89.0444,"dy":0.0017,"dx":0.0017,"nx":28,"ny":28,"refTime":"2024-08-13T09:00:00:Z","depth":0,"parameterNumber":2,"parameterNumberName":"U-component_of_WINDS"},"data":[0,0,0,0,0,0,0,0,0,0,0,0,0,0,0,0,0,0,0,0,0,0,0,0,0,0,0,0,0,0,0,0,0,0,0,0,0,0,0,0,0,0,0,0,0,0,0,0,0,0,0,0,0,0,0,0,0,0,1.1348,1.1349,0,1.1469,1.1471,1.1472,1.1497,1.1496,1.1495,1.1494,1.1623,1.1628,1.1632,0,0,0,0,0,0,0,0,0,0,0,0,0,1.1141,1.1145,1.1347,1.1349,1.135,1.1469,1.1471,1.1472,1.1497,1.1496,1.1495,1.1493,1.1622,1.1627,1.1632,0,0,0,0,0,0,0,0,0,0,0,0,0,1.1244,1.1146,1.1347,1.1377,1.1381,1.1469,1.1471,1.1473,1.1497,1.1496,1.1494,1.1493,1.162,1.1627,1.1633,1.1702,0,0,1.1653,1.1656,0,0,0,0,0,0,0,0,1.1238,1.1251,1.1371,1.1375,1.1379,1.1466,1.1445,1.155,1.1497,1.1453,1.1494,1.1492,1.1573,1.1583,1.1609,1.1708,1.1713,1.1653,1.1657,1.166,1.1662,0,0,0,0,0,0,0,1.1231,1.1246,1.1396,1.1373,1.1378,1.1386,1.1399,1.1465,1.152,1.1457,1.1459,1.1473,1.1575,1.1603,1.1612,1.1715,1.1653,1.1659,1.1663,1.1666,1.1878,1.1879,0,0,0,0,0,0,1.1218,1.124,1.1392,1.1399,1.1303,1.1391,1.1405,1.144,1.1519,1.1529,1.1474,1.1473,1.1592,1.1605,1.1617,1.1704,1.166,1.1666,1.167,1.1876,1.1878,1.188,0,0,0,0,0,0,1.1213,1.1231,1.1387,1.132,1.1341,1.1396,1.1435,1.1443,1.1471,1.1532,1.1542,1.1492,1.1592,1.1608,1.168,1.1708,1.1669,1.1675,1.1874,1.1877,1.1879,1.1876,0,0,0,0,0,0,1.1207,1.1229,1.1254,1.1321,1.1344,1.1447,1.1436,1.1446,1.1482,1.1482,1.1552,1.1562,1.1592,1.167,1.1687,1.1717,1.168,1.1872,1.1875,1.1878,1.1874,1.1879,1.1882,0,0,0,0,0,1.12,1.125,1.1256,1.1274,1.1377,1.1448,1.1462,1.1494,1.1484,1.1511,1.155,1.156,1.1702,1.1678,1.1696,1.1728,1.187,1.1874,1.1878,1.1872,1.1878,1.1882,0,0,0,0,0,0,1.1187,1.1259,1.1266,1.1339,1.1387,1.1452,1.1487,1.1499,1.1552,1.1551,1.159,1.1606,1.1676,1.171,1.1681,1.18,1.1786,1.1794,1.1775,1.1781,1.1785,1.1776,1.1686,0,0,0,0,0,1.1192,1.1242,1.1303,1.1362,1.1385,1.1432,1.1464,1.1485,1.1537,1.1558,1.1603,1.1654,1.1711,1.1748,1.1803,1.1879,1.1895,1.191,1.1914,1.1917,1.1924,1.1968,1.1976,1.1893,1.1893,1.1893,0,0,1.1204,1.125,1.1279,1.136,1.14,1.1453,1.1449,1.1505,1.1546,1.1567,1.1638,1.1673,1.1733,1.1808,1.1843,1.1838,1.195,1.1922,1.1924,1.1929,1.1973,1.1981,1.1988,1.1896,1.1895,1.1895,0,0,1.1253,1.1292,1.1346,1.1385,1.1445,1.1476,1.1489,1.1553,1.1576,1.1647,1.1665,1.1714,1.1811,1.1854,1.1888,1.1954,1.1966,1.1971,1.1992,1.2035,1.2041,1.2048,1.2073,1.2081,1.1977,1.1977,1.1977,0,1.1261,1.1341,1.1372,1.1428,1.1463,1.1484,1.1539,1.1577,1.1653,1.1678,1.167,1.1792,1.1834,1.192,1.1936,1.1962,1.198,1.1964,1.2038,1.2044,1.205,1.2075,1.2084,1.1977,1.1977,1.1977,1.1977,0,1.1348,1.1403,1.1439,1.151,1.155,1.1605,1.1647,1.1684,1.1701,1.1733,1.1806,1.1857,1.1924,1.1946,1.1964,1.2035,1.203,1.2029,1.2017,1.2058,1.2081,1.2091,1.1978,1.1978,1.1978,1.1978,0,0,1.1393,1.1481,1.1494,1.1527,1.1595,1.1639,1.1695,1.1759,1.1791,1.1842,1.1892,1.1973,1.1974,1.2013,1.2036,1.2073,1.2123,1.2068,1.207,1.2078,1.2207,1.2207,1.2217,1.2131,1.2133,1.2134,1.2202,0,1.1452,1.1552,1.1583,1.1668,1.172,1.174,1.179,1.1838,1.187,1.192,1.1955,1.2013,1.2008,1.2032,1.2069,1.2109,1.215,1.2105,1.218,1.2182,1.2165,1.2229,1.223,1.2291,1.2211,1.2213,1.2214,0,1.1534,1.1586,1.1676,1.1738,1.1761,1.1805,1.1866,1.1913,1.1968,1.1989,1.2032,1.2052,1.2114,1.2097,1.2184,1.2152,1.2185,1.2209,1.2212,1.2222,1.2201,1.2242,1.2311,1.2321,1.2229,1.2227,1.2226,0,1.1559,1.1652,1.1718,1.1745,1.1819,1.185,1.1882,1.1936,1.1973,1.2027,1.2051,1.2112,1.2146,1.2194,1.223,1.2214,1.2315,1.23,1.2335,1.2334,1.2356,1.2355,1.2434,1.2375,1.2375,1.2375,1.2375,0,1.1622,1.1677,1.173,1.1771,1.1834,1.1868,1.193,1.1963,1.2011,1.206,1.2082,1.2128,1.2172,1.2225,1.2254,1.2322,1.2337,1.2357,1.2364,1.2355,1.2353,1.2378,1.2375,1.2377,1.2377,1.2376,1.2376,0,1.1662,1.17,1.1773,1.1837,1.1854,1.1897,1.1953,1.1994,1.2026,1.2088,1.2104,1.2156,1.2218,1.2259,1.2339,1.2359,1.2434,1.244,1.2415,1.2419,1.2452,1.2449,1.2551,1.2566,1.2496,1.2497,1.2497,0,1.17,1.1743,1.181,1.1844,1.1876,1.193,1.1968,1.2004,1.2042,1.2109,1.2143,1.2206,1.2259,1.2359,1.2404,1.2466,1.2474,1.2506,1.2484,1.2474,1.2477,1.2474,1.2479,1.251,1.251,1.2511,1.2511,0,1.1765,1.1781,1.1833,1.1893,1.1936,1.1985,1.2034,1.2061,1.2106,1.2148,1.2211,1.2252,1.2334,1.2398,1.2464,1.2499,1.2514,1.2517,1.2529,1.2521,1.2506,1.2516,1.2426,1.2515,1.2515,1.2515,1.2514,1.2514,1.1806,1.1845,1.1899,1.1957,1.1997,1.2042,1.2084,1.2121,1.2174,1.2243,1.2261,1.2328,1.2384,1.2474,1.251,1.2564,1.2561,1.2577,1.2582,1.2585,1.2586,1.2496,1.2576,1.2576,1.2576,1.2576,1.2576,0,1.1873,1.1908,1.1961,1.2028,1.2074,1.2081,1.2136,1.2175,1.2233,1.2283,1.2334,1.2408,1.247,1.252,1.2584,1.2618,1.2626,1.2634,1.2632,1.264,1.2585,1.2569,1.2626,1.2626,1.2626,1.2626,1.2626,1.2626,1.1913,1.1979,1.2003,1.209,1.2126,1.2191,1.2221,1.2264,1.2304,1.2385,1.2436,1.2467,1.2518,1.2586,1.2644,1.2657,1.2681,1.2687,1.2702,1.265,1.2644,1.2639,1.2624,1.2691,1.2691,1.2753,1.2753,1.2754]},{"header":{"parameterUnit":"m.s-1","parameterCategory":1,"la1":30.2991,"la2":30.254,"lo1":-89.0895,"lo2":-89.0444,"dy":0.0017,"dx":0.0017,"nx":28,"ny":28,"refTime":"2024-08-13T09:00:00:Z","depth":0,"parameterNumber":3,"parameterNumberName":"V-component_of_WINDS"},"data":[0,0,0,0,0,0,0,0,0,0,0,0,0,0,0,0,0,0,0,0,0,0,0,0,0,0,0,0,0,0,0,0,0,0,0,0,0,0,0,0,0,0,0,0,0,0,0,0,0,0,0,0,0,0,0,0,0,0,1.5247,1.5247,0,1.526,1.526,1.5261,1.5215,1.5213,1.5212,1.521,1.5224,1.5225,1.5227,0,0,0,0,0,0,0,0,0,0,0,0,0,1.5179,1.518,1.5247,1.5247,1.5247,1.526,1.526,1.5261,1.5215,1.5213,1.5211,1.521,1.5223,1.5225,1.5227,0,0,0,0,0,0,0,0,0,0,0,0,0,1.5202,1.5181,1.5247,1.5226,1.5224,1.526,1.526,1.5261,1.5215,1.5213,1.5211,1.5209,1.5222,1.5225,1.5227,1.5284,0,0,1.5235,1.5236,0,0,0,0,0,0,0,0,1.5201,1.5204,1.5229,1.5227,1.5225,1.5234,1.5241,1.5268,1.5216,1.5219,1.521,1.5208,1.5229,1.523,1.5237,1.5285,1.5285,1.5235,1.5236,1.5238,1.5238,0,0,0,0,0,0,0,1.5199,1.5203,1.5252,1.5229,1.5227,1.5215,1.5216,1.5246,1.5235,1.5218,1.5215,1.5217,1.5227,1.5235,1.5237,1.5285,1.5235,1.5237,1.5239,1.524,1.5375,1.5377,0,0,0,0,0,0,1.52,1.5202,1.5252,1.5252,1.5208,1.5218,1.5219,1.5233,1.5235,1.5233,1.5219,1.5215,1.5232,1.5235,1.5238,1.53,1.5237,1.524,1.5241,1.5373,1.5375,1.5378,0,0,0,0,0,0,1.5199,1.5205,1.5251,1.5227,1.5231,1.5221,1.5237,1.5234,1.5242,1.5235,1.5233,1.5229,1.5231,1.5234,1.5272,1.53,1.5241,1.5243,1.537,1.5374,1.5377,1.5429,0,0,0,0,0,0,1.5197,1.5205,1.5227,1.5227,1.5233,1.5286,1.5239,1.5236,1.5247,1.5242,1.5244,1.5242,1.5229,1.5268,1.5274,1.5303,1.5245,1.5368,1.5372,1.5375,1.5424,1.5433,1.5441,0,0,0,0,0,1.5195,1.5242,1.5229,1.5235,1.5261,1.5288,1.5291,1.5275,1.5249,1.5271,1.5265,1.5242,1.5297,1.5273,1.5279,1.5308,1.5366,1.5371,1.5375,1.5421,1.5431,1.5441,0,0,0,0,0,0,1.5246,1.5242,1.5227,1.5276,1.5282,1.528,1.5306,1.5288,1.5301,1.5296,1.5275,1.5276,1.5316,1.5317,1.529,1.5361,1.5327,1.5333,1.5359,1.5369,1.5378,1.5375,1.5247,0,0,0,0,0,1.5263,1.5286,1.5281,1.5325,1.5329,1.5317,1.5329,1.5315,1.5321,1.5324,1.5322,1.5328,1.5346,1.5358,1.5375,1.5425,1.5423,1.5448,1.5457,1.5463,1.5468,1.549,1.55,1.5393,1.5393,1.5393,0,0,1.5299,1.5299,1.5315,1.5335,1.5338,1.5361,1.532,1.5347,1.5362,1.5328,1.5362,1.5361,1.5366,1.5409,1.5428,1.541,1.5497,1.547,1.5475,1.5476,1.5496,1.5506,1.5515,1.5397,1.5396,1.5395,0,0,1.5373,1.5378,1.5412,1.5416,1.5422,1.5413,1.5422,1.5422,1.5419,1.5453,1.5426,1.5445,1.5478,1.5481,1.5488,1.5561,1.5539,1.5568,1.561,1.5632,1.564,1.5647,1.567,1.5679,1.5573,1.5573,1.5573,0,1.5416,1.545,1.5433,1.546,1.5468,1.5437,1.547,1.5475,1.5486,1.5492,1.5473,1.551,1.5512,1.5553,1.5571,1.5579,1.5585,1.5566,1.5641,1.5648,1.5654,1.5675,1.5684,1.5576,1.5576,1.5576,1.5575,0,1.55,1.5523,1.5551,1.556,1.5572,1.5602,1.5588,1.5602,1.5587,1.5581,1.5614,1.5615,1.5629,1.5639,1.5626,1.5677,1.5666,1.5644,1.5608,1.5668,1.5687,1.5695,1.5581,1.5579,1.5579,1.5578,0,0,1.5607,1.5605,1.5615,1.5617,1.562,1.5637,1.5665,1.5679,1.5689,1.5698,1.5718,1.5746,1.5725,1.5732,1.5719,1.5739,1.5792,1.5714,1.5714,1.5725,1.5844,1.5858,1.5867,1.5778,1.578,1.5781,1.5842,0,1.5677,1.5724,1.5708,1.5755,1.5774,1.5745,1.5769,1.5773,1.5767,1.5782,1.5775,1.5793,1.5766,1.5769,1.5788,1.5782,1.5815,1.5777,1.5795,1.5796,1.5791,1.5878,1.5893,1.5951,1.585,1.5851,1.5852,0,1.5765,1.5775,1.5823,1.5819,1.5827,1.5849,1.5858,1.5874,1.5876,1.587,1.5877,1.5859,1.5884,1.5851,1.5884,1.5859,1.5865,1.5863,1.5865,1.5863,1.5825,1.5875,1.5969,1.5976,1.5865,1.5864,1.5863,0,1.5832,1.5859,1.589,1.5893,1.5891,1.5906,1.5906,1.5906,1.5914,1.5923,1.5927,1.5939,1.5945,1.5954,1.5938,1.5916,1.5972,1.5938,1.5965,1.5966,1.5976,1.5975,1.6069,1.5987,1.5986,1.5986,1.5986,0,1.591,1.594,1.5919,1.5938,1.597,1.5952,1.5983,1.598,1.598,1.5997,1.5974,1.5989,1.597,1.5984,1.5973,1.5999,1.6003,1.5997,1.5993,1.5997,1.5997,1.5999,1.5993,1.5989,1.5988,1.5988,1.5987,0,1.599,1.5978,1.6009,1.6004,1.6003,1.6026,1.6021,1.6037,1.603,1.605,1.6054,1.6042,1.6057,1.6043,1.6058,1.605,1.6084,1.6077,1.6083,1.6079,1.6105,1.6102,1.62,1.6211,1.6126,1.6126,1.6127,0,1.6038,1.606,1.6056,1.6065,1.6066,1.6082,1.6089,1.6071,1.608,1.6083,1.6098,1.6111,1.6119,1.6144,1.6136,1.6146,1.6136,1.6169,1.6137,1.6139,1.6131,1.6129,1.6129,1.6175,1.6176,1.6177,1.6178,0,1.6124,1.6116,1.6128,1.6137,1.6146,1.6152,1.6157,1.6165,1.6147,1.6158,1.6171,1.6178,1.6192,1.6203,1.6211,1.6209,1.6189,1.6188,1.6194,1.6197,1.6198,1.6194,1.6097,1.6185,1.6185,1.6184,1.6184,1.6183,1.6187,1.6203,1.6202,1.6215,1.6216,1.622,1.6234,1.6227,1.6239,1.6247,1.6237,1.6253,1.6253,1.626,1.6261,1.6273,1.6258,1.6268,1.627,1.6272,1.6273,1.6199,1.6274,1.6274,1.6274,1.6274,1.6274,0,1.6268,1.6265,1.6277,1.6283,1.6292,1.6274,1.6277,1.6286,1.63,1.6301,1.631,1.6324,1.6335,1.6327,1.6336,1.6346,1.6337,1.6349,1.6346,1.6345,1.6288,1.628,1.6356,1.6356,1.6356,1.6356,1.6356,1.6356,1.6311,1.6336,1.6328,1.6353,1.6351,1.6366,1.6368,1.6371,1.6372,1.6389,1.6397,1.6392,1.6389,1.6396,1.6405,1.6402,1.6404,1.6419,1.6412,1.6358,1.635,1.6342,1.6334,1.642,1.642,1.6468,1.6469,1.6469]}]]